Weather History for KCBG - October, 2013

Change the Weather History Date:

Monday, October 7, 2013

  Actual Average Record
Temperature  
Mean Temperature 54 °F -  
Max Temperature 66 °F 58 °F 84 °F (2003)
Min Temperature 42 °F 36 °F 20 °F (1976)
Degree Days  
Heating Degree Days 11    
Growing Degree Days 4 (Base 50)    
Moisture  
Dew Point 41 °F    
Average Humidity 66    
Maximum Humidity 81    
Minimum Humidity 45    
Precipitation  
Precipitation 0.07 in - - ()
Sea Level Pressure  
Sea Level Pressure 29.89 in    
Wind  
Wind Speed 2 mph (WNW)    
Max Wind Speed 9 mph    
Max Gust Speed -    
Visibility 10 miles    
Events Rain    
Averages and records for this station are not official NWS values.
T = Trace of Precipitation, MM = Missing Value Source: NWS Daily Summary

Daily Weather History Graph

Daily Weather History Graph

Search for Another Location

Airport or City:

Trip Planner

Search our weather history database for the weather conditions in past years. The results will help you decide how hot, cold, wet, or windy it might be!

Date:

Astronomy

Oct. 07, 2013 Rise Set
Actual Time 7:19 AM CDT 6:41 PM CDT
Civil Twilight 6:49 AM CDT 7:11 PM CDT
Nautical Twilight 6:15 AM CDT 7:45 PM CDT
Astronomical Twilight 5:40 AM CDT 8:19 PM CDT
Moon 10:19 AM CDT (10/7) 8:16 PM CDT (10/7)
Length of Visible Light 12h 21m
Length of Day
11h 22m
Waxing Crescent, 9% of the Moon is Illuminated
Oct 7
Waxing Crescent
Oct 11
First Quarter
Oct 18
Full
Oct 26
Last Quarter
Nov 3
New

Hourly Weather History & Observations

Time (CDT) Temp. Windchill Dew Point Humidity Pressure Visibility Wind Dir Wind Speed Gust Speed Precip Events Conditions
12:16 AM 44.6 °F 43.1 °F 37.4 °F 76% 29.81 in 10.0 mi West 3.5 mph - N/A   Unknown
12:35 AM 44.6 °F - 37.4 °F 76% 29.81 in 10.0 mi Calm Calm - N/A   Unknown
12:56 AM 44.6 °F 43.1 °F 37.4 °F 76% 29.81 in 10.0 mi West 3.5 mph - N/A   Unknown
1:15 AM 44.6 °F - 37.4 °F 76% 29.81 in 10.0 mi Calm Calm - N/A   Unknown
1:35 AM 44.6 °F - 37.4 °F 76% 29.81 in 10.0 mi Calm Calm - N/A   Unknown
1:56 AM 44.6 °F - 37.4 °F 76% 29.81 in 10.0 mi Calm Calm - 0.01 in   Unknown
2:15 AM 46.4 °F - 37.4 °F 71% 29.81 in 10.0 mi Calm Calm - 0.01 in   Unknown
2:36 AM 44.6 °F - 37.4 °F 76% 29.80 in 10.0 mi Calm Calm - 0.01 in   Unknown
2:55 AM 46.4 °F - 37.4 °F 71% 29.80 in 10.0 mi Calm Calm - 0.01 in   Unknown
3:15 AM 44.6 °F - 37.4 °F 76% 29.81 in 10.0 mi Calm Calm - N/A   Unknown
3:36 AM 44.6 °F - 37.4 °F 76% 29.81 in 10.0 mi Calm Calm - N/A   Unknown
3:55 AM 44.6 °F - 37.4 °F 76% 29.80 in 10.0 mi Calm Calm - N/A   Unknown
4:16 AM 42.8 °F - 37.4 °F 81% 29.81 in 10.0 mi Calm Calm - N/A   Unknown
4:35 AM 44.6 °F - 37.4 °F 76% 29.81 in 10.0 mi Calm Calm - N/A   Unknown
4:56 AM 42.8 °F - 35.6 °F 76% 29.81 in 10.0 mi Calm Calm - N/A   Unknown
5:15 AM 42.8 °F - 37.4 °F 81% 29.81 in 10.0 mi Calm Calm - N/A   Unknown
5:35 AM 42.8 °F - 37.4 °F 81% 29.82 in 10.0 mi Calm Calm - N/A   Unknown
5:55 AM 42.8 °F - 35.6 °F 76% 29.83 in 10.0 mi Calm Calm - N/A   Unknown
6:15 AM 42.8 °F - 35.6 °F 76% 29.83 in 10.0 mi Calm Calm - N/A   Unknown
6:36 AM 42.8 °F - 35.6 °F 76% 29.84 in 10.0 mi Calm Calm - N/A   Unknown
6:55 AM 42.8 °F - 35.6 °F 76% 29.84 in 10.0 mi Calm Calm - N/A   Unknown
7:16 AM 42.8 °F - 35.6 °F 76% 29.85 in 10.0 mi Calm Calm - N/A   Unknown
7:35 AM 42.8 °F - 35.6 °F 76% 29.85 in 10.0 mi Calm Calm - N/A   Unknown
7:55 AM 42.8 °F - 35.6 °F 76% 29.86 in 10.0 mi Calm Calm - N/A   Unknown
8:16 AM 44.6 °F - 37.4 °F 76% 29.87 in 10.0 mi Calm Calm - 0.01 in   Unknown
8:35 AM 46.4 °F - 39.2 °F 76% 29.88 in 10.0 mi Calm Calm - 0.01 in   Unknown
8:56 AM 48.2 °F - 39.2 °F 71% 29.89 in 10.0 mi NW 3.5 mph - N/A   Unknown
9:15 AM 50.0 °F - 41.0 °F 71% 29.89 in 10.0 mi NW 3.5 mph - N/A   Unknown
9:35 AM 51.8 °F - 42.8 °F 71% 29.90 in 10.0 mi NW 4.6 mph - N/A   Unknown
9:55 AM 53.6 °F - 44.6 °F 72% 29.91 in 10.0 mi NNW 5.8 mph - N/A   Unknown
10:15 AM 55.4 °F - 44.6 °F 67% 29.92 in 10.0 mi NNW 8.1 mph - N/A   Unknown
10:35 AM 57.2 °F - 44.6 °F 63% 29.92 in 10.0 mi NNW 4.6 mph - N/A   Unknown
10:55 AM 57.2 °F - 44.6 °F 63% 29.93 in 10.0 mi NW 5.8 mph - N/A   Unknown
11:16 AM 60.8 °F - 46.4 °F 59% 29.93 in 10.0 mi WNW 6.9 mph - N/A   Unknown
11:35 AM 60.8 °F - 44.6 °F 55% 29.93 in 10.0 mi NW 8.1 mph - N/A   Unknown
11:56 AM 60.8 °F - 44.6 °F 55% 29.93 in 10.0 mi North 5.8 mph - N/A   Unknown
12:15 PM 62.6 °F - 44.6 °F 52% 29.94 in 10.0 mi NW 9.2 mph - N/A   Unknown
12:36 PM 62.6 °F - 44.6 °F 52% 29.94 in 10.0 mi WNW 9.2 mph - N/A   Unknown
12:55 PM 64.4 °F - 44.6 °F 49% 29.94 in 10.0 mi West 8.1 mph - N/A   Unknown
1:15 PM 64.4 °F - 44.6 °F 49% 29.94 in 10.0 mi NW 6.9 mph - 0.01 in   Unknown
1:35 PM 64.4 °F - 44.6 °F 49% 29.93 in 10.0 mi WNW 5.8 mph - 0.01 in   Unknown
1:55 PM 64.4 °F - 44.6 °F 49% 29.93 in 10.0 mi NW 4.6 mph - 0.01 in   Unknown
2:16 PM 64.4 °F - 44.6 °F 49% 29.93 in 10.0 mi WNW 9.2 mph - N/A   Unknown
2:35 PM 64.4 °F - 42.8 °F 45% 29.93 in 10.0 mi West 6.9 mph - N/A   Unknown
2:56 PM 66.2 °F - 44.6 °F 46% 29.93 in 10.0 mi NW 6.9 mph - N/A   Unknown
3:15 PM 66.2 °F - 44.6 °F 46% 29.93 in - Calm Calm - N/A   Unknown
3:35 PM 66.2 °F - 44.6 °F 46% 29.93 in 10.0 mi WNW 6.9 mph - N/A   Unknown
3:55 PM 66.2 °F - 44.6 °F 46% 29.93 in 10.0 mi West 9.2 mph - N/A   Unknown
4:15 PM 64.4 °F - 44.6 °F 49% 29.93 in 10.0 mi West 5.8 mph - N/A   Unknown
4:36 PM 66.2 °F - 44.6 °F 46% 29.93 in 10.0 mi West 8.1 mph - N/A   Unknown
4:55 PM 64.4 °F - 44.6 °F 49% 29.93 in 10.0 mi WNW 5.8 mph - 0.01 in   Unknown
5:15 PM 66.2 °F - 44.6 °F 46% 29.93 in 10.0 mi West 3.5 mph - N/A Rain Light Rain
5:36 PM 64.4 °F - 46.4 °F 52% 29.93 in 10.0 mi Calm Calm - N/A   Clear
5:55 PM 64.4 °F - 46.4 °F 52% 29.93 in 10.0 mi Calm Calm - N/A   Clear
6:15 PM 60.8 °F - 44.6 °F 55% 29.93 in 10.0 mi Calm Calm - N/A   Clear
6:35 PM 57.2 °F - 44.6 °F 63% 29.94 in 10.0 mi Calm Calm - N/A   Clear
6:55 PM 55.4 °F - 44.6 °F 67% 29.94 in 10.0 mi Calm Calm - N/A   Clear
7:16 PM 53.6 °F - 42.8 °F 67% 29.95 in 10.0 mi Calm Calm - N/A   Clear
7:35 PM 51.8 °F - 42.8 °F 71% 29.95 in 10.0 mi Calm Calm - N/A   Clear
7:56 PM 51.8 °F - 42.8 °F 71% 29.95 in 10.0 mi Calm Calm - N/A   Clear
8:15 PM 51.8 °F - 42.8 °F 71% 29.95 in 10.0 mi Calm Calm - N/A   Clear
8:36 PM 50.0 °F - 42.8 °F 76% 29.96 in 10.0 mi Calm Calm - N/A   Clear
8:55 PM 50.0 °F - 42.8 °F 76% 29.96 in 10.0 mi Calm Calm - N/A   Clear
9:16 PM 48.2 °F - 41.0 °F 76% 29.96 in 10.0 mi Calm Calm - N/A   Clear
9:35 PM 48.2 °F - 41.0 °F 76% 29.95 in 10.0 mi Calm Calm - 0.01 in   Clear
9:55 PM 48.2 °F - 39.2 °F 71% 29.95 in 10.0 mi Calm Calm - 0.01 in   Clear
10:16 PM 51.8 °F - 41.0 °F 67% 29.96 in 10.0 mi Calm Calm - N/A   Clear
10:35 PM 51.8 °F - 41.0 °F 67% 29.95 in 10.0 mi Calm Calm - N/A   Clear
10:56 PM 51.8 °F - 41.0 °F 67% 29.95 in 10.0 mi Calm Calm - N/A   Clear
11:15 PM 51.8 °F - 39.2 °F 62% 29.95 in 10.0 mi Calm Calm - N/A   Clear
11:36 PM 51.8 °F - 39.2 °F 62% 29.95 in 10.0 mi Calm Calm - 0.01 in   Clear
11:55 PM 51.8 °F - 39.2 °F 62% 29.95 in 10.0 mi Calm Calm - 0.01 in   Clear